EA3RCF Weather Reports


time (UTC)temp
C
wind
direction
speed
KPH
gust
KPH
rain 1hr
cm
rain 24hr
cm
rain mn
cm
humidity
%
barometer
mb
20260902143834 31 98 9.7 17.7 0.00 0.00 0.00 48 1021.3
20260902143314 31 56 8.0 20.9 0.00 0.00 0.00 47 1021.4
20260902142814 31 78 17.7 20.9 0.00 0.00 0.00 46 1021.4
20260902142323 31 98 9.7 20.9 0.00 0.00 0.00 44 1021.4
20260902141823 31 86 17.7 24.1 0.00 0.00 0.00 41 1021.4
20260902141330 31 88 16.1 24.1 0.00 0.00 0.00 41 1021.3
20260902140831 31 72 16.1 24.1 0.00 0.00 0.00 41 1021.3
20260902140338 31 83 9.7 20.9 0.00 0.00 0.00 40 1021.3
20260902135818 31 123 11.3 24.1 0.00 0.00 0.00 41 1021.3
20260902135318 31 80 16.1 24.1 0.00 0.00 0.00 41 1021.3
20260902134822 31 91 12.9 22.5 0.00 0.00 0.00 40 1021.3
20260902134324 31 123 14.5 24.1 0.00 0.00 0.00 40 1021.3
20260902133832 31 103 9.7 22.5 0.00 0.00 0.00 40 1021.3
20260902133330 31 63 14.5 22.5 0.00 0.00 0.00 40 1021.4
20260902132831 31 77 9.7 17.7 0.00 0.00 0.00 40 1021.4
20260902132319 31 88 14.5 19.3 0.00 0.00 0.00 40 1021.4
20260902131818 31 85 14.5 19.3 0.00 0.00 0.00 40 1021.4
20260902131320 31 126 14.5 25.7 0.00 0.00 0.00 39 1021.5
20260902130824 31 93 9.7 25.7 0.00 0.00 0.00 39 1021.4
20260902130325 32 79 9.7 16.1 0.00 0.00 0.00 39 1021.4
20260902125815 31 70 12.9 19.3 0.00 0.00 0.00 39 1021.4
20260902125315 32 67 12.9 17.7 0.00 0.00 0.00 39 1021.5
20260902124814 31 96 12.9 19.3 0.00 0.00 0.00 39 1021.5
20260902124320 31 86 6.4 22.5 0.00 0.00 0.00 40 1021.5
20260902123822 31 93 16.1 22.5 0.00 0.00 0.00 40 1021.6
20260902123337 31 93 9.7 19.3 0.00 0.00 0.00 41 1021.6
20260902122817 31 91 9.7 17.7 0.00 0.00 0.00 41 1021.7
20260902122318 31 110 11.3 16.1 0.00 0.00 0.00 40 1021.7
20260902121826 31 30 6.4 16.1 0.00 0.00 0.00 40 1021.7
20260902121327 31 75 11.3 20.9 0.00 0.00 0.00 40 1021.8
20260902120835 31 123 11.3 20.9 0.00 0.00 0.00 40 1021.8
20260902120332 31 72 12.9 20.9 0.00 0.00 0.00 40 1021.9
20260902115813 31 58 8.0 19.3 0.00 0.00 0.00 41 1021.9
20260902115322 31 125 11.3 14.5 0.00 0.00 0.00 40 1022.0
20260902114823 31 45 4.8 16.1 0.00 0.00 0.00 41 1021.9
20260902114331 31 77 9.7 16.1 0.00 0.00 0.00 41 1021.9
20260902113830 31 96 3.2 14.5 0.00 0.00 0.00 42 1021.9
20260902113331 31 63 9.7 16.1 0.00 0.00 0.00 41 1022.0
20260902112819 31 94 4.8 14.5 0.00 0.00 0.00 42 1022.0
20260902112321 30 63 8.0 14.5 0.00 0.00 0.00 42 1022.0
20260902111823 31 89 6.4 12.9 0.00 0.00 0.00 42 1022.1
20260902111316 30 53 8.0 12.9 0.00 0.00 0.00 42 1022.2
20260902110816 30 84 6.4 11.3 0.00 0.00 0.00 42 1022.2
20260902110325 30 67 6.4 11.3 0.00 0.00 0.00 42 1022.2
20260902105827 30 109 6.4 12.9 0.00 0.00 0.00 43 1022.2
20260902105329 30 89 4.8 9.7 0.00 0.00 0.00 43 1022.3
20260902104920 30 74 1.6 11.3 0.00 0.00 0.00 42 1022.3
20260902104324 30 53 0.0 9.7 0.00 0.00 0.00 43 1022.3
20260902103826 30 91 0.0 8.0 0.00 0.00 0.00 43 1022.4
20260902103332 30 100 0.0 8.0 0.00 0.00 0.00 44 1022.5
20260902102316 30 57 1.6 4.8 0.00 0.00 0.00 43 1022.6
20260902101825 30 92 0.0 1.6 0.00 0.00 0.00 44 1022.6
20260902101325 29 28 0.0 4.8 0.00 0.00 0.00 45 1022.6
20260902100833 29 79 1.6 8.0 0.00 0.00 0.00 45 1022.7
20260902100315 30 95 3.2 8.0 0.00 0.00 0.00 45 1022.7
20260902095817 30 89 0.0 1.6 0.00 0.00 0.00 43 1022.7
20260902095327 29 57 0.0 3.2 0.00 0.00 0.00 43 1022.7
20260902094817 29 84 0.0 6.4 0.00 0.00 0.00 44 1022.8
20260902094317 28 34 0.0 6.4 0.00 0.00 0.00 44 1022.8
20260902093825 28 339 0.0 4.8 0.00 0.00 0.00 45 1022.8
20260902093327 28 335 0.0 3.2 0.00 0.00 0.00 45 1022.8
20260902092836 28 98 0.0 4.8 0.00 0.00 0.00 45 1022.9
20260902092317 28 321 1.6 4.8 0.00 0.00 0.00 45 1022.8
20260902091818 28 1 0.0 8.0 0.00 0.00 0.00 46 1022.9
20260902091324 28 37 0.0 3.2 0.00 0.00 0.00 47 1022.9
20260902090823 28 317 0.0 3.2 0.00 0.00 0.00 48 1022.7
20260902090324 28 15 0.0 1.6 0.00 0.00 0.00 50 1022.8
20260902085831 27 65 0.0 3.2 0.00 0.00 0.00 52 1022.8
20260902085331 27 311 0.0 3.2 0.00 0.00 0.00 52 1022.6
20260902084839 27 98 0.0 1.6 0.00 0.00 0.00 52 1022.6
20260902084321 27 73 1.6 1.6 0.00 0.00 0.00 51 1022.6
20260902083822 27 96 0.0 1.6 0.00 0.00 0.00 56 1022.6
20260902083331 26 96 0.0 1.6 0.00 0.00 0.00 57 1022.6
20260902082832 27 248 0.0 1.6 0.00 0.00 0.00 56 1022.6
20260902082314 27 248 0.0 3.2 0.00 0.00 0.00 56 1022.6
20260902081823 26 248 0.0 3.2 0.00 0.00 0.00 56 1022.6
20260902081324 26 246 0.0 1.6 0.00 0.00 0.00 58 1022.6
20260902080833 25 246 0.0 1.6 0.00 0.00 0.00 61 1022.6
20260902080332 25 245 0.0 1.6 0.00 0.00 0.00 64 1022.6
20260902075813 24 11 0.0 3.2 0.00 0.00 0.00 65 1022.5
20260902075321 24 12 1.6 3.2 0.00 0.00 0.00 66 1022.5
20260902074824 24 85 1.6 3.2 0.00 0.00 0.00 66 1022.5
20260902074332 23 94 1.6 3.2 0.00 0.00 0.00 68 1022.5
20260902073832 23 86 1.6 3.2 0.00 0.00 0.00 68 1022.5
20260902073339 23 67 0.0 3.2 0.00 0.00 0.00 70 1022.4
20260902072819 23 86 1.6 3.2 0.00 0.00 0.00 70 1022.4
20260902072321 22 86 1.6 3.2 0.00 0.00 0.00 72 1022.5
20260902070826 22 226 0.0 1.6 0.00 0.00 0.00 73 1022.5
20260902070334 21 226 0.0 3.2 0.00 0.00 0.00 73 1022.5
20260902065815 21 226 0.0 3.2 0.00 0.00 0.00 74 1022.5
20260902065317 21 79 0.0 3.2 0.00 0.00 0.00 76 1022.5
20260902064817 20 79 0.0 3.2 0.00 0.00 0.00 79 1022.4
20260902064327 20 46 1.6 3.2 0.00 0.00 0.00 79 1022.3
20260902063817 20 262 1.6 3.2 0.00 0.00 0.00 81 1022.4
20260902063326 19 261 0.0 1.6 0.00 0.00 0.00 81 1022.4
20260902062815 19 261 0.0 1.6 0.00 0.00 0.00 83 1022.3
20260902062332 18 261 0.0 1.6 0.00 0.00 0.00 83 1022.3
20260902061821 18 262 0.0 1.6 0.00 0.00 0.00 83 1022.3
20260902061324 19 261 0.0 1.6 0.00 0.00 0.00 83 1022.2
20260902060824 18 262 0.0 1.6 0.00 0.00 0.00 84 1022.2
20260902060331 18 261 0.0 1.6 0.00 0.00 0.00 85 1022.0
20260902055832 18 262 1.6 1.6 0.00 0.00 0.00 86 1021.9
20260902055312 17 262 0.0 1.6 0.00 0.00 0.00 87 1021.9
20260902054821 17 261 0.0 1.6 0.00 0.00 0.00 87 1022.0
20260902054323 17 261 0.0 1.6 0.00 0.00 0.00 87 1021.9
20260902053816 17 262 0.0 1.6 0.00 0.00 0.00 88 1021.8
20260902053317 17 261 0.0 0.0 0.00 0.00 0.00 88 1021.8
20260902052825 17 262 0.0 0.0 0.00 0.00 0.00 88 1021.8
20260902052326 17 261 0.0 0.0 0.00 0.00 0.00 88 1021.7
20260902051828 17 261 0.0 1.6 0.00 0.00 0.00 88 1021.7
20260902050813 17 262 1.6 6.4 0.00 0.00 0.00 88 1021.5
20260902050314 17 220 1.6 3.2 0.00 0.00 0.00 88 1021.5
20260902045829 17 222 0.0 1.6 0.00 0.00 0.00 89 1021.5
20260902045331 17 222 0.0 1.6 0.00 0.00 0.00 89 1021.4
20260902044813 17 222 0.0 1.6 0.00 0.00 0.00 89 1021.4
20260902044322 17 222 0.0 1.6 0.00 0.00 0.00 88 1021.4
20260902043824 17 221 1.6 1.6 0.00 0.00 0.00 89 1021.4
20260902043331 17 222 0.0 0.0 0.00 0.00 0.00 89 1021.5
20260902042812 17 222 0.0 1.6 0.00 0.00 0.00 90 1021.5
20260902042314 17 222 0.0 1.6 0.00 0.00 0.00 90 1021.5
20260902041823 17 222 0.0 1.6 0.00 0.00 0.00 90 1021.5
20260902041324 17 222 1.6 3.2 0.00 0.00 0.00 90 1021.4
20260902040833 17 222 1.6 3.2 0.00 0.00 0.00 90 1021.5
20260902040314 17 221 0.0 0.0 0.00 0.00 0.00 90 1021.5
20260902035813 17 222 0.0 0.0 0.00 0.00 0.00 90 1021.5
20260902035321 17 222 0.0 0.0 0.00 0.00 0.00 90 1021.6
20260902034823 17 221 0.0 3.2 0.00 0.00 0.00 90 1021.6
20260902034331 17 221 1.6 3.2 0.00 0.00 0.00 90 1021.7
20260902033812 17 219 0.0 0.0 0.00 0.00 0.00 89 1021.5
20260902033314 17 219 0.0 1.6 0.00 0.00 0.00 89 1021.6
20260902032829 18 219 0.0 1.6 0.00 0.00 0.00 89 1021.6
20260902032331 18 219 0.0 1.6 0.00 0.00 0.00 89 1021.6
20260902031813 18 219 0.0 1.6 0.00 0.00 0.00 89 1021.5
20260902031321 18 219 0.0 1.6 0.00 0.00 0.00 89 1021.4
20260902030823 18 220 0.0 1.6 0.00 0.00 0.00 89 1021.5
20260902030332 18 232 0.0 1.6 0.00 0.00 0.00 89 1021.5
20260902025812 18 232 0.0 1.6 0.00 0.00 0.00 90 1021.5
20260902025314 18 231 0.0 1.6 0.00 0.00 0.00 90 1021.5
20260902024821 18 232 0.0 1.6 0.00 0.00 0.00 90 1021.5
20260902024323 18 231 0.0 1.6 0.00 0.00 0.00 90 1021.6
20260902023832 18 232 0.0 1.6 0.00 0.00 0.00 89 1021.6
20260902023315 18 232 0.0 1.6 0.00 0.00 0.00 89 1021.6
20260902022823 18 232 0.0 1.6 0.00 0.00 0.00 89 1021.6
20260902022331 18 231 0.0 1.6 0.00 0.00 0.00 89 1021.6
20260902021919 18 232 0.0 1.6 0.00 0.00 0.00 89 1021.5
20260902021329 18 232 0.0 0.0 0.00 0.00 0.00 89 1021.5
20260902020839 18 232 0.0 0.0 0.00 0.00 0.00 89 1021.5
20260902020316 18 231 0.0 0.0 0.00 0.00 0.00 89 1021.4
20260902015825 18 232 0.0 0.0 0.00 0.00 0.00 89 1021.4
20260902015326 18 232 0.0 0.0 0.00 0.00 0.00 89 1021.5
20260902014832 18 232 0.0 1.6 0.00 0.00 0.00 88 1021.4
20260902014314 18 232 0.0 1.6 0.00 0.00 0.00 88 1021.4
20260902013815 18 231 0.0 1.6 0.00 0.00 0.00 88 1021.4
20260902013324 18 232 0.0 1.6 0.00 0.00 0.00 88 1021.4
20260902012826 18 232 0.0 1.6 0.00 0.00 0.00 88 1021.4
20260902012335 18 232 0.0 1.6 0.00 0.00 0.00 88 1021.4
20260902011814 18 232 0.0 0.0 0.00 0.00 0.00 87 1021.5
20260902011316 18 231 0.0 1.6 0.00 0.00 0.00 87 1021.5
20260902010824 18 232 0.0 1.6 0.00 0.00 0.00 87 1021.5
20260902010325 19 232 0.0 1.6 0.00 0.00 0.00 87 1021.5
20260902005834 19 232 0.0 3.2 0.00 0.00 0.00 87 1021.5
20260902005316 18 232 0.0 3.2 0.00 0.00 0.00 88 1021.6
20260902004816 18 229 0.0 1.6 0.00 0.00 0.00 88 1021.6
20260902004325 18 229 0.0 1.6 0.00 0.00 0.00 88 1021.6
20260902003828 18 229 1.6 1.6 0.00 0.00 0.00 88 1021.6
20260902003337 19 229 0.0 1.6 0.00 0.00 0.00 87 1021.6
20260902002818 19 229 1.6 3.2 0.00 0.00 0.00 87 1021.6
20260902002320 19 229 1.6 3.2 0.00 0.00 0.00 86 1021.5
20260902001829 19 222 0.0 1.6 0.00 0.00 0.00 86 1021.5
20260902001329 19 222 1.6 3.2 0.00 0.00 0.00 86 1021.5
20260902000830 19 222 1.6 4.8 0.00 0.00 0.00 87 1021.6
20260902000322 19 224 1.6 4.8 0.00 0.00 0.00 87 1021.5
20260901235823 19 228 0.0 1.6 0.00 0.00 0.00 86 1021.4
20260901235333 19 228 0.0 1.6 0.00 0.00 0.00 86 1021.4
20260901234815 19 228 1.6 1.6 0.00 0.00 0.00 86 1021.4
20260901234315 20 228 0.0 1.6 0.00 0.00 0.00 85 1021.5
20260901233820 20 228 0.0 1.6 0.00 0.00 0.00 85 1021.4
20260901233322 20 228 0.0 1.6 0.00 0.00 0.00 85 1021.5
20260901232824 20 228 0.0 1.6 0.00 0.00 0.00 85 1021.5
20260901232313 20 228 0.0 1.6 0.00 0.00 0.00 85 1021.5
20260901231813 20 228 0.0 3.2 0.00 0.00 0.00 85 1021.5
20260901231341 20 228 1.6 3.2 0.00 0.00 0.00 85 1021.5
20260901230823 20 228 0.0 3.2 0.00 0.00 0.00 85 1021.5
20260901230326 20 177 0.0 3.2 0.00 0.00 0.00 85 1021.4
20260901225835 20 207 0.0 3.2 0.00 0.00 0.00 85 1021.5
20260901225316 20 207 0.0 3.2 0.00 0.00 0.00 85 1021.4
20260901224818 20 207 3.2 3.2 0.00 0.00 0.00 85 1021.4
20260901224323 20 207 1.6 1.6 0.00 0.00 0.00 85 1021.4
20260901223825 20 207 0.0 1.6 0.00 0.00 0.00 84 1021.4
20260901223334 20 207 0.0 3.2 0.00 0.00 0.00 84 1021.3
20260901222816 20 207 1.6 4.8 0.00 0.00 0.00 84 1021.3
20260901222323 20 206 1.6 6.4 0.00 0.00 0.00 84 1021.3
20260901221831 20 215 4.8 6.4 0.00 0.00 0.00 84 1021.4
20260901221332 20 141 0.0 4.8 0.00 0.00 0.00 84 1021.4
20260901220841 20 128 1.6 4.8 0.00 0.00 0.00 83 1021.3
20260901220323 20 251 3.2 3.2 0.00 0.00 0.00 83 1021.2
20260901215823 21 252 0.0 1.6 0.00 0.00 0.00 82 1021.1
20260901215331 20 252 1.6 1.6 0.00 0.00 0.00 83 1021.1
20260901214831 21 252 0.0 3.2 0.00 0.00 0.00 82 1021.0
20260901214338 21 251 0.0 3.2 0.00 0.00 0.00 82 1021.0
20260901213819 21 252 1.6 3.2 0.00 0.00 0.00 81 1021.0
20260901213322 21 252 0.0 1.6 0.00 0.00 0.00 82 1020.9
20260901212830 21 252 0.0 1.6 0.00 0.00 0.00 82 1021.0
20260901212315 21 251 1.6 3.2 0.00 0.00 0.00 82 1020.9
20260901211816 21 252 1.6 3.2 0.00 0.00 0.00 82 1020.8
20260901211324 21 251 1.6 1.6 0.00 0.00 0.00 82 1020.9
20260901210826 21 252 1.6 1.6 0.00 0.00 0.00 82 1020.9
20260901210335 21 252 1.6 1.6 0.00 0.00 0.00 82 1021.0
20260901205834 21 251 0.0 3.2 0.00 0.00 0.00 81 1021.0
20260901205315 21 252 3.2 3.2 0.00 0.00 0.00 81 1020.9
20260901204824 21 125 0.0 1.6 0.00 0.00 0.00 81 1020.9
20260901204325 21 126 0.0 1.6 0.00 0.00 0.00 81 1020.9
20260901203834 21 240 0.0 1.6 0.00 0.00 0.00 81 1020.9
20260901203334 21 240 1.6 1.6 0.00 0.00 0.00 81 1021.0
20260901202842 21 240 0.0 3.2 0.00 0.00 0.00 80 1021.0
20260901202323 21 240 1.6 3.2 0.00 0.00 0.00 80 1020.9
20260901201826 21 238 1.6 3.2 0.00 0.00 0.00 80 1020.9
20260901201331 21 236 1.6 3.2 0.00 0.00 0.00 79 1020.9
20260901200832 22 236 3.2 4.8 0.00 0.00 0.00 78 1020.8
20260901200339 22 174 3.2 4.8 0.00 0.00 0.00 78 1020.8
20260901195822 22 150 1.6 3.2 0.00 0.00 0.00 78 1020.8
20260901195323 22 139 3.2 4.8 0.00 0.00 0.00 77 1020.7
20260901194831 22 140 3.2 4.8 0.00 0.00 0.00 76 1020.6
20260901194333 22 134 3.2 4.8 0.00 0.00 0.00 76 1020.5
20260901193838 22 33 0.0 1.6 0.00 0.00 0.00 76 1020.4
20260901193318 22 33 0.0 3.2 0.00 0.00 0.00 75 1020.4
20260901192818 23 33 0.0 3.2 0.00 0.00 0.00 75 1020.3
20260901192327 23 33 1.6 3.2 0.00 0.00 0.00 74 1020.3
20260901191829 23 68 1.6 4.8 0.00 0.00 0.00 74 1020.2
20260901191338 23 68 3.2 4.8 0.00 0.00 0.00 74 1020.3
20260901190818 23 71 3.2 4.8 0.00 0.00 0.00 73 1020.3
20260901190328 23 89 1.6 4.8 0.00 0.00 0.00 73 1020.2
20260901185837 23 304 1.6 4.8 0.00 0.00 0.00 73 1020.1
20260901185318 23 66 3.2 4.8 0.00 0.00 0.00 72 1020.1
20260901184817 23 81 1.6 4.8 0.00 0.00 0.00 72 1019.9
20260901184327 24 87 3.2 8.0 0.00 0.00 0.00 71 1020.0
20260901183832 24 46 6.4 9.7 0.00 0.00 0.00 71 1019.8
20260901183341 24 98 4.8 11.3 0.00 0.00 0.00 70 1019.8
20260901182821 24 76 8.0 11.3 0.00 0.00 0.00 70 1019.8
20260901182324 24 71 8.0 11.3 0.00 0.00 0.00 69 1019.7
20260901181826 25 99 6.4 9.7 0.00 0.00 0.00 69 1019.7
20260901181327 25 97 6.4 9.7 0.00 0.00 0.00 68 1019.7
20260901180836 25 82 6.4 12.9 0.00 0.00 0.00 67 1019.7
20260901180318 25 85 9.7 12.9 0.00 0.00 0.00 67 1019.7
20260901175842 25 84 6.4 11.3 0.00 0.00 0.00 65 1019.6
20260901175323 25 61 6.4 11.3 0.00 0.00 0.00 65 1019.6
20260901174823 26 51 3.2 8.0 0.00 0.00 0.00 64 1019.5
20260901173320 26 49 6.4 11.3 0.00 0.00 0.00 63 1019.6
20260901172821 26 70 3.2 8.0 0.00 0.00 0.00 63 1019.5
20260901172316 26 70 3.2 8.0 0.00 0.00 0.00 62 1019.5
20260901171815 26 34 1.6 8.0 0.00 0.00 0.00 62 1019.6
20260901171316 26 52 6.4 12.9 0.00 0.00 0.00 62 1019.7
20260901170823 26 91 9.7 12.9 0.00 0.00 0.00 61 1019.6
20260901170324 26 70 8.0 12.9 0.00 0.00 0.00 62 1019.7
20260901165831 26 79 6.4 12.9 0.00 0.00 0.00 61 1019.6
20260901165334 26 89 8.0 12.9 0.00 0.00 0.00 61 1019.5
20260901164838 26 87 8.0 14.5 0.00 0.00 0.00 60 1019.4
20260901164318 27 58 9.7 16.1 0.00 0.00 0.00 60 1019.4
20260901163841 27 72 6.4 12.9 0.00 0.00 0.00 60 1019.3
20260901163323 27 77 8.0 11.3 0.00 0.00 0.00 59 1019.5
20260901162824 27 77 8.0 12.9 0.00 0.00 0.00 58 1019.4
20260901162332 27 96 9.7 12.9 0.00 0.00 0.00 58 1019.4
20260901161833 27 93 8.0 16.1 0.00 0.00 0.00 58 1019.6
20260901161316 27 52 11.3 16.1 0.00 0.00 0.00 58 1019.5
20260901160824 27 51 11.3 17.7 0.00 0.00 0.00 58 1019.5
20260901160325 27 91 12.9 17.7 0.00 0.00 0.00 57 1019.3
20260901155818 27 77 14.5 20.9 0.00 0.00 0.00 57 1019.3
20260901155320 27 83 11.3 20.9 0.00 0.00 0.00 56 1019.3
20260901154821 28 81 9.7 14.5 0.00 0.00 0.00 56 1019.3
20260901154330 28 73 8.0 11.3 0.00 0.00 0.00 56 1019.2
20260901153830 28 34 6.4 12.9 0.00 0.00 0.00 55 1019.2
20260901153336 28 62 9.7 12.9 0.00 0.00 0.00 56 1019.2
20260901152816 28 68 9.7 20.9 0.00 0.00 0.00 56 1019.1
20260901152325 28 44 12.9 19.3 0.00 0.00 0.00 56 1019.1
20260901151834 28 75 14.5 19.3 0.00 0.00 0.00 56 1019.1
20260901151331 28 83 14.5 19.3 0.00 0.00 0.00 56 1019.2
20260901150840 29 74 11.3 19.3 0.00 0.00 0.00 55 1019.3
20260901150323 29 34 11.3 16.1 0.00 0.00 0.00 55 1019.2
20260901145831 29 77 9.7 20.9 0.00 0.00 0.00 55 1019.2
20260901145320 30 36 8.0 20.9 0.00 0.00 0.00 54 1019.3
20260901144820 30 98 1.6 8.0 0.00 0.00 0.00 53 1019.2
20260901144321 30 43 0.0 4.8 0.00 0.00 0.00 51 1019.3